Location: Montreal
(45.5000°N, 73.5833°W)
Time: 11:07:23
(UTC-04:00)

Envisat - Pass Details

Date: 11 October 2017
Orbit: 764 x 766 km, 98.2° (Epoch: 17 October)

Event Time Altitude Azimuth Distance (km) Brightness Sun altitude
Exits shadow 22:10:56 14° 271° (W) 2,041 5.6 -40.1°
Maximum altitude 22:10:58 14° 272° (W) 2,041 5.6 -40.1°
Drops below altitude 10° 22:13:34 10° 303° (WNW) 2,309 6.1 -40.4°
Sets 22:17:05 0° 328° (NNW) 3,241 7.0 -40.9°
